Home > Weather > Ramat Gan > Past weeks

Flag for Israel Past Weather in Ramat Gan, Israel — Yesterday and Last 2 Weeks

Now
86 °F

Passing clouds.


Feels Like: 95 °F
Forecast: 77 / 88 °F
Wind: 10 mph from Northwest

Location: Dov Airport

Current Time: Jul 30, 2016 at 4:17:12 PM

Latest Report: Jul 30, 2016 at 3:50 PM


Visibility: N/A

Pressure: 29.68 "Hg

Humidity: 70%

Dew Point: 75 °F

Location of Ramat GanLocation

Past Weather in Ramat Gan — Graph

°F

Ramat Gan Temperature Yesterday

Maximum temperature yesterday: 86 °F (at 11:50 AM)
Minimum temperature yesterday: 75 °F (at 5:50 AM)
Average temperature yesterday: 83 °F

High & Low Weather Summary for the Past Weeks

 TemperatureHumidityPressure
High90 °F (Jul 30, 1:50 PM)89% (Jul 26, 4:50 AM)29.89 "Hg (Jul 26, 4:50 AM)
Low75 °F (Jul 16, 6:00 AM)49% (Jul 19, 3:50 PM)29.65 "Hg (Jul 19, 5:50 AM)
Average83 °F67%29.74 "Hg
* Reported Jul 15 2:50 PM — Jul 30 2:50 PM, Ramat Gan, Weather by CustomWeather, © 2016

Note: Actual official high and low records may vary slightly from our data, if they occured in-between our weather recording intervals... More about our weather records

Advertising

Ramat Gan Weather History for the Previous 24 Hours

Scroll right to see more
 ConditionsComfort  
Time TempWeatherWind HumidityBarometerVisibility
2:50 PM
Sat, Jul 30
88 °FPassing clouds.12 mph66%29.68 "HgN/A
1:50 PM90 °FPassing clouds.12 mph59%29.68 "HgN/A
12:50 PM88 °FPassing clouds.10 mph62%29.71 "HgN/A
11:50 AM86 °FPassing clouds.10 mph66%29.71 "HgN/A
10:50 AM86 °FPassing clouds.10 mph66%29.71 "HgN/A
9:50 AM86 °FScattered clouds.9 mph62%29.71 "HgN/A
8:50 AM84 °FScattered clouds.7 mph70%29.71 "HgN/A
7:50 AM82 °FScattered clouds.6 mph74%29.71 "HgN/A
6:50 AM81 °FPassing clouds.5 mph79%29.68 "HgN/A
5:50 AM81 °FPassing clouds.5 mph79%29.68 "HgN/A
4:50 AM81 °FPassing clouds.2 mph79%29.68 "HgN/A
4:00 AM81 °FPassing clouds.2 mph79%29.68 "HgN/A
9:50 PM
Fri, Jul 29
82 °FPassing clouds.6 mph74%29.68 "HgN/A
8:50 PM82 °FPassing clouds.6 mph79%29.68 "HgN/A
7:50 PM84 °FPartly sunny.8 mph74%29.65 "HgN/A
6:50 PM84 °FScattered clouds.9 mph74%29.65 "HgN/A
5:50 PM86 °FScattered clouds.10 mph70%29.65 "HgN/A
Weather by CustomWeather, © 2016

See weather overviewHow to use our weather pages